Location: Dittelbrunn
(50.0738°N, 10.2196°E)
Time: 12:32:10
(UTC+00:00)

ATLAS 3B R/B - Pass Details

Date: 18 September 2020
Orbit: 1016 x 1179 km, 63.8° (Epoch: 04 October)

Event Time Altitude Azimuth Distance (km) Brightness Sun altitude
Rises 21:21:37 0° 316° (NW) 3,831 6.7 -33.3°
Reaches altitude 10° 21:24:14 10° 314° (NW) 2,894 5.8 -33.5°
Enters shadow 21:30:03 57° 269° (W) 1,271 3.1 -34.0°
